This is the latest recevied weather packets stored in our database for station/object KA4JMC. If no packets are shown the sender has not sent any weather packets the latest 1 day(s).
| Time | Temp. | Humidity | Pressure | Rain* | Wind** | Luminosity | Snow |
|---|---|---|---|---|---|---|---|
| 1778013019 | 14.44° C | - | 982.8 hPa | - | 1.34 m/s, 323° | - | - |
| 1778012714 | 14.44° C | - | 982.8 hPa | - | 0 m/s | - | - |
| 1778012415 | 14.44° C | - | 982.8 hPa | - | 0 m/s | - | - |
| 1778012120 | 14.44° C | - | 982.8 hPa | - | 1.34 m/s, 312° | - | - |
| 1778011814 | 15° C | - | 982.8 hPa | - | 0 m/s | - | - |
| 1778011518 | 15° C | - | 982.8 hPa | - | 0 m/s | - | - |
| 1778011215 | 15° C | - | 982.8 hPa | - | 0 m/s | - | - |
| 1778010914 | 15° C | - | 982.8 hPa | - | 0.89 m/s, 327° | - | - |
| 1778010614 | 15° C | - | 982.8 hPa | - | 1.79 m/s, 341° | - | - |
| 1778010314 | 15° C | - | 981.8 hPa | - | 0 m/s | - | - |
| 1778010018 | 15° C | - | 981.8 hPa | - | 1.34 m/s, 323° | - | - |
| 1778009714 | 15° C | - | 981.8 hPa | - | 1.34 m/s, 353° | - | - |
| 1778009418 | 15° C | - | 982.8 hPa | - | 0 m/s | - | - |
| 1778009113 | 15° C | - | 982.8 hPa | - | 0.89 m/s, 216° | - | - |
| 1778008814 | 15° C | - | 982.8 hPa | - | 1.34 m/s, 2° | - | - |
| 1778008513 | 15.56° C | - | 982.8 hPa | - | 1.34 m/s, 350° | - | - |
| 1778008214 | 15° C | - | 982.8 hPa | - | 0 m/s | - | - |
| 1778007914 | 15.56° C | - | 982.8 hPa | - | 2.24 m/s, 286° | - | - |
| 1778007613 | 15.56° C | - | 982.8 hPa | - | 0 m/s | - | - |
| 1778007318 | 15.56° C | - | 982.8 hPa | - | 1.79 m/s, 327° | - | - |
| 1778007014 | 15.56° C | - | 982.8 hPa | - | 1.79 m/s, 301° | - | - |
| 1778006714 | 15.56° C | - | 982.8 hPa | - | 2.68 m/s, 340° | - | - |
| 1778006414 | 15° C | - | 982.8 hPa | - | 1.79 m/s, 186° | - | - |
| 1778006113 | 15° C | - | 982.8 hPa | - | 1.34 m/s, 236° | - | - |
| 1778005815 | 15.56° C | - | 982.8 hPa | - | 1.79 m/s, 329° | - | - |
* Rain since midnight (hover to see other rain measurements)
** Current wind speed in m/s (hover to see current wind gust speed)